Location: D�rnast
(49.6426°N, 11.9755°E)
Time: 01:19:24
(UTC+00:00)

X-37B - Visible Passes

Search period start: 08 December 2021 00:00
Search period end: 18 December 2021 00:00
Orbit: 329 x 342 km, 45.0° (Epoch: 06 December)

Date Brightness Start Highest point End Pass type
(mag) Time Alt. Az. Time Alt. Az. Time Alt. Az.
08 Dec 3.0 17:36:50 10° SW 17:37:49 16° SSW 17:37:49 16° SSW visible
09 Dec 2.9 16:22:55 10° S 16:24:26 13° SSE 16:25:56 10° ESE visible
09 Dec 3.5 17:56:48 10° SW 17:57:23 14° SW 17:57:23 14° SW visible
10 Dec 2.2 16:42:17 10° SW 16:44:35 21° SSE 16:45:42 17° SE visible
11 Dec 1.7 17:02:14 10° SW 17:04:49 29° S 17:05:15 28° SSE visible
12 Dec 2.4 15:47:43 10° SW 15:50:01 21° SSE 15:52:19 10° ESE visible
12 Dec 1.8 17:22:26 10° WSW 17:24:47 31° SSW 17:24:47 31° SSW visible
13 Dec 1.9 16:07:40 10° SW 16:10:15 29° S 16:12:49 10° ESE visible
13 Dec 2.7 17:42:48 10° WSW 17:44:22 22° SW 17:44:22 22° SW visible
14 Dec 1.8 16:27:53 10° WSW 16:30:32 32° S 16:32:46 13° ESE visible
14 Dec 3.6 18:03:21 10° WSW 18:03:59 14° WSW 18:03:59 14° WSW visible
15 Dec 2.1 16:48:14 10° WSW 16:50:48 28° S 16:52:28 16° SE visible
16 Dec 2.7 17:08:47 10° WSW 17:11:01 20° SSW 17:12:16 16° SSE visible
17 Dec 2.3 15:53:41 10° WSW 15:56:14 28° S 15:58:48 10° SE visible
17 Dec 3.3 17:29:51 10° SW 17:31:09 12° SSW 17:32:15 11° S visible
